Flag for Canada Weather past 2 weeks in Iqaluit, Nunavut Territory, Canada

Now
48 °F

Light rain. Overcast.


Feels Like: 43 °F
Forecast: 42 / 50 °F
Wind: 13 mph from Northwest

Location: Iqaluit

Current Time: Aug 23, 2014 at 9:59:13 AM

Latest Report: Aug 23, 2014 at 9:00 AM


Visibility: 15 mi

Pressure: 29.95 "Hg

Humidity: 94%

Dew point: 46 °F

Location of IqaluitLocation

Historic Weather in Iqaluit — Graph

°F

Iqaluit temperature yesterday

Maximum temperature yesterday: 50 °F (at 4:00 PM)
Minimum temperature yesterday: 37 °F (at 1:00 AM)
Average temperature yesterday: 43 °F

Past Weeks' High & Low Weather Summary

 TemperatureHumidityPressure
High59 °F (Aug 8, 8:00 PM)100% (Aug 8, 8:00 AM)30.34 "Hg (Aug 8, 8:00 AM)
Low36 °F (Aug 18, 1:00 AM)47% (Aug 9, 2:00 PM)29.39 "Hg (Aug 12, 2:00 AM)
Average45 °F86%29.93 "Hg
* Reported Aug 8 8:00 AM — Aug 23 8:00 AM, Iqaluit, Weather by CustomWeather, © 2014

Note: Actual official high and low records may vary slightly from our data, if they occured in-between our weather recording intervals... More about our weather records

Advertising

Iqaluit weather history for previous 24 hours

 ConditionsComfort  
Time TempWeatherWind HumidityBarometerVisibility
8:00 AM
Aug 23
48 °FLight rain. Overcast.15 mph94%29.95 "Hg15 mi
7:00 AM48 °FLight rain. Overcast.15 mph94%29.94 "Hg15 mi
6:00 AM50 °FMostly cloudy.14 mph88%29.93 "Hg30 mi
5:00 AM54 °FPartly sunny.12 mph82%29.92 "Hg30 mi
4:00 AM55 °FBroken clouds.10 mph82%29.90 "Hg15 mi
3:00 AM55 °FMostly cloudy.8 mph77%29.90 "Hg15 mi
2:00 AM48 °FMostly cloudy.No wind87%29.90 "Hg15 mi
1:00 AM48 °FPassing clouds.No wind87%29.90 "Hg15 mi
12:00 AM48 °FPassing clouds.No wind87%29.92 "Hg15 mi
11:00 PM
Aug 22
46 °FPassing clouds.7 mph87%29.93 "Hg15 mi
10:00 PM45 °FPassing clouds.7 mph87%29.95 "Hg15 mi
9:00 PM46 °FPassing clouds.2 mph87%29.96 "Hg30 mi
8:00 PM48 °FPassing clouds.2 mph82%29.98 "Hg30 mi
7:00 PM48 °FPassing clouds.5 mph82%29.99 "Hg30 mi
6:00 PM50 °FScattered clouds.No wind76%30.00 "Hg30 mi
5:00 PM48 °FScattered clouds.2 mph82%30.01 "Hg30 mi
4:00 PM50 °FScattered clouds.6 mph76%30.01 "Hg30 mi
3:00 PM48 °FScattered clouds.6 mph76%30.03 "Hg30 mi
2:00 PM48 °FPassing clouds.9 mph82%30.03 "Hg30 mi
1:00 PM46 °FPassing clouds.10 mph82%30.05 "Hg30 mi
12:00 PM45 °FScattered clouds.8 mph87%30.07 "Hg30 mi
11:00 AM43 °FPartly sunny.7 mph93%30.09 "Hg10 mi
10:00 AM39 °FFog.7 mph100%30.11 "Hg1 mi
9:00 AM39 °FFog.6 mph100%30.14 "Hg0 mi
Weather by CustomWeather, © 2014

See weather overviewHow to use our weather pages